This is the latest recevied weather packets stored in our database for station/object WA0LM. If no packets are shown the sender has not sent any weather packets the latest 1 day(s).
| Time | Temp. | Humidity | Pressure | Rain* | Wind** | Luminosity | Snow |
|---|---|---|---|---|---|---|---|
| 1778056691 | 1.67° C | 63% | 1013.1 hPa | 0 mm | - | 0 W/m² | - |
| 1778056086 | 2.22° C | 65% | 1013.1 hPa | 0 mm | - | 0 W/m² | - |
| 1778055479 | 2.22° C | 67% | 1013.1 hPa | 0 mm | - | 0 W/m² | - |
| 1778054874 | 1.67° C | 68% | 1013.1 hPa | 0 mm | - | 0 W/m² | - |
| 1778054570 | 1.67° C | 66% | 1013 hPa | 0 mm | - | 0 W/m² | - |
| 1778054268 | 1.67° C | 65% | 1013 hPa | 0 mm | - | 0 W/m² | - |
| 1778053359 | 1.67° C | 66% | 1013 hPa | 0 mm | - | 0 W/m² | - |
| 1778052754 | 1.67° C | 65% | 1013 hPa | 0 mm | - | 0 W/m² | - |
| 1778052451 | 1.67° C | 69% | 1013 hPa | 0 mm | - | 0 W/m² | - |
| 1778052149 | 1.67° C | 67% | 1012.9 hPa | 0 mm | - | 0 W/m² | - |
| 1778051241 | 2.22° C | 66% | 1012.9 hPa | 0 mm | - | 0 W/m² | - |
| 1778050938 | 2.22° C | 65% | 1012.9 hPa | 0 mm | - | 0 W/m² | - |
| 1778050332 | 2.22° C | 63% | 1012.8 hPa | 0 mm | - | 0 W/m² | - |
| 1778050029 | 2.22° C | 66% | 1012.9 hPa | 0 mm | - | 0 W/m² | - |
| 1778049423 | 2.22° C | 63% | 1013.1 hPa | 0 mm | - | 0 W/m² | - |
| 1778048818 | 2.78° C | 66% | 1012.9 hPa | 0 mm | - | 0 W/m² | - |
| 1778048210 | 2.78° C | 62% | 1013.1 hPa | 0 mm | - | 0 W/m² | - |
| 1778047908 | 3.33° C | 68% | 1013 hPa | 0 mm | - | 0 W/m² | - |
| 1778047303 | 3.33° C | 68% | 1013.1 hPa | 0 mm | - | 0 W/m² | - |
| 1778047000 | 2.78° C | 62% | 1013.1 hPa | 0 mm | - | 0 W/m² | - |
| 1778046697 | 2.78° C | 60% | 1013 hPa | 0 mm | - | 0 W/m² | - |
| 1778046090 | 2.78° C | 65% | 1013 hPa | 0 mm | - | 0 W/m² | - |
| 1778045788 | 3.33° C | 64% | 1012.9 hPa | 0 mm | - | 0 W/m² | - |
| 1778045184 | 2.78° C | 63% | 1012.7 hPa | 0 mm | - | 0 W/m² | - |
| 1778044882 | 3.33° C | 64% | 1012.8 hPa | 0 mm | - | 0 W/m² | - |
* Rain latest hour (hover to see other rain measurements)
** Current wind speed in m/s (hover to see current wind gust speed)